Location: Newark
(47.5500°N, 8.6167°E)
Time: 02:04:17
(UTC+00:00)

Envisat - Pass Details

Date: 25 January 2020
Orbit: 764 x 766 km, 98.1° (Epoch: 25 February)

Event Time Altitude Azimuth Distance (km) Brightness Sun altitude
Rises 17:27:56 0° 176° (S) 3,220 6.4 -12.3°
Reaches altitude 10° 17:30:16 10° 180° (S) 2,298 5.7 -12.6°
Maximum altitude 17:35:16 59° 259° (W) 888 3.7 -13.5°
Drops below altitude 10° 17:40:18 10° 339° (NNW) 2,315 5.6 -14.3°
Sets 17:42:40 0° 344° (NNW) 3,246 6.3 -14.7°
